Hourly Weather Minsk

Today, 5 July, Sunday

Time Temperature Precipitation Wind Pressure Humidity
00:00 +16°C° 0 mm 1 mps 741 mmHg 84%
01:00 +16°C° 0 mm 1 mps 741 mmHg 85%
02:00 +15°C° 0 mm 2 mps 741 mmHg 87%
03:00 +15°C° 0 mm 2 mps 741 mmHg 87%
04:00 +15°C° 0 mm 2 mps 741 mmHg 88%
05:00 +15°C° 0 mm 2 mps 740 mmHg 88%
06:00 +17°C° 0 mm 3 mps 740 mmHg 84%
07:00 +19°C° 0 mm 3 mps 740 mmHg 80%
08:00 +20°C° 0 mm 4 mps 740 mmHg 76%
09:00 +21°C° 0 mm 4 mps 740 mmHg 73%
10:00 +22°C° 0 mm 4 mps 740 mmHg 69%
11:00 +25°C° 0 mm 4 mps 740 mmHg 66%
12:00 +25°C° 0.2 mm 5 mps 740 mmHg 67%
13:00 +25°C° 0.2 mm 5 mps 740 mmHg 69%
14:00 +25°C° 0.2 mm 5 mps 740 mmHg 70%
15:00 +25°C° 0.1 mm 5 mps 739 mmHg 70%
16:00 +25°C° 0.1 mm 5 mps 739 mmHg 69%
17:00 +25°C° 0.1 mm 4 mps 739 mmHg 69%
18:00 +23°C° 0 mm 4 mps 739 mmHg 74%
19:00 +22°C° 0 mm 4 mps 739 mmHg 80%
20:00 +21°C° 0 mm 3 mps 739 mmHg 85%
21:00 +20°C° 0 mm 3 mps 739 mmHg 88%
22:00 +19°C° 0 mm 3 mps 739 mmHg 91%
23:00 +19°C° 0 mm 3 mps 739 mmHg 94%

Tomorrow, 6 July, Monday

Time Temperature Precipitation Wind Pressure Humidity
00:00 +18°C° 0 mm 3 mps 738 mmHg 94%
01:00 +18°C° 0 mm 3 mps 738 mmHg 95%
02:00 +18°C° 0 mm 3 mps 738 mmHg 96%
03:00 +18°C° 0 mm 3 mps 738 mmHg 96%
04:00 +18°C° 0 mm 3 mps 738 mmHg 96%
05:00 +18°C° 0 mm 3 mps 738 mmHg 96%
06:00 +19°C° 0 mm 4 mps 738 mmHg 93%
07:00 +20°C° 0 mm 4 mps 738 mmHg 90%
08:00 +21°C° 0 mm 4 mps 738 mmHg 88%
09:00 +22°C° 0.1 mm 4 mps 738 mmHg 87%
10:00 +22°C° 0.1 mm 3 mps 738 mmHg 86%
11:00 +24°C° 0.1 mm 3 mps 738 mmHg 85%
12:00 +24°C° 0.6 mm 3 mps 737 mmHg 84%
13:00 +24°C° 0.6 mm 3 mps 737 mmHg 84%
14:00 +24°C° 0.6 mm 3 mps 737 mmHg 84%
15:00 +24°C° 0.3 mm 3 mps 737 mmHg 83%
16:00 +24°C° 0.3 mm 3 mps 737 mmHg 83%
17:00 +25°C° 0.3 mm 3 mps 736 mmHg 82%
18:00 +24°C° 0.4 mm 2 mps 736 mmHg 84%
19:00 +23°C° 0.4 mm 2 mps 736 mmHg 86%
20:00 +22°C° 0.4 mm 1 mps 736 mmHg 88%
21:00 +22°C° 0.1 mm 1 mps 736 mmHg 89%
22:00 +21°C° 0.1 mm 1 mps 736 mmHg 90%
23:00 +21°C° 0.1 mm 1 mps 737 mmHg 91%

Day after tomorrow, 7 July, Tuesday

Time Temperature Precipitation Wind Pressure Humidity
00:00 +20°C° 0.4 mm 1 mps 737 mmHg 92%
01:00 +20°C° 0.4 mm 1 mps 737 mmHg 93%
02:00 +18°C° 0.4 mm 2 mps 737 mmHg 94%
03:00 +17°C° 0.7 mm 2 mps 737 mmHg 95%
04:00 +17°C° 0.7 mm 3 mps 737 mmHg 95%
05:00 +16°C° 0.7 mm 3 mps 737 mmHg 95%
06:00 +15°C° 0.3 mm 4 mps 738 mmHg 94%
07:00 +14°C° 0.3 mm 4 mps 738 mmHg 92%
08:00 +14°C° 0.3 mm 4 mps 738 mmHg 91%
09:00 +14°C° 0.1 mm 4 mps 738 mmHg 88%
10:00 +15°C° 0.1 mm 4 mps 739 mmHg 85%
11:00 +15°C° 0.1 mm 4 mps 739 mmHg 82%
12:00 +18°C° 0 mm 4 mps 739 mmHg 76%
13:00 +19°C° 0 mm 3 mps 739 mmHg 71%
14:00 +20°C° 0 mm 3 mps 739 mmHg 66%
15:00 +20°C° 0 mm 3 mps 739 mmHg 68%
16:00 +20°C° 0 mm 3 mps 739 mmHg 70%
17:00 +19°C° 0 mm 4 mps 739 mmHg 72%
18:00 +18°C° 0 mm 4 mps 739 mmHg 74%
19:00 +18°C° 0 mm 3 mps 740 mmHg 76%
20:00 +17°C° 0 mm 3 mps 740 mmHg 78%
21:00 +16°C° 0 mm 3 mps 740 mmHg 79%
22:00 +15°C° 0 mm 4 mps 740 mmHg 80%
23:00 +14°C° 0 mm 4 mps 740 mmHg 81%

8 July, Wednesday

Time Temperature Precipitation Wind Pressure Humidity
00:00 +14°C° 0 mm 4 mps 741 mmHg 80%
01:00 +13°C° 0 mm 4 mps 741 mmHg 79%
02:00 +12°C° 0 mm 4 mps 741 mmHg 79%
03:00 +12°C° 0 mm 4 mps 741 mmHg 81%
04:00 +11°C° 0 mm 3 mps 741 mmHg 84%
05:00 +10°C° 0 mm 3 mps 741 mmHg 87%
06:00 +11°C° 0 mm 3 mps 741 mmHg 83%
07:00 +13°C° 0 mm 3 mps 741 mmHg 79%
08:00 +14°C° 0 mm 3 mps 741 mmHg 76%
09:00 +16°C° 0 mm 3 mps 741 mmHg 72%
10:00 +17°C° 0 mm 4 mps 741 mmHg 68%
11:00 +18°C° 0 mm 4 mps 741 mmHg 65%
12:00 +19°C° 0 mm 4 mps 741 mmHg 64%
13:00 +19°C° 0 mm 4 mps 741 mmHg 63%
14:00 +20°C° 0 mm 4 mps 741 mmHg 63%
15:00 +19°C° 0 mm 4 mps 741 mmHg 63%
16:00 +19°C° 0 mm 4 mps 741 mmHg 64%
17:00 +19°C° 0 mm 3 mps 740 mmHg 65%
18:00 +18°C° 0 mm 3 mps 741 mmHg 69%
19:00 +17°C° 0 mm 2 mps 741 mmHg 74%
20:00 +16°C° 0 mm 2 mps 741 mmHg 79%
21:00 +15°C° 0 mm 2 mps 741 mmHg 79%
22:00 +15°C° 0 mm 2 mps 741 mmHg 80%
23:00 +14°C° 0 mm 2 mps 741 mmHg 80%

9 July, Thursday

Time Temperature Precipitation Wind Pressure Humidity
00:00 +14°C° 0.1 mm 2 mps 741 mmHg 81%
01:00 +14°C° 0.1 mm 2 mps 741 mmHg 82%
02:00 +14°C° 0.1 mm 2 mps 741 mmHg 84%
03:00 +14°C° 0 mm 1 mps 741 mmHg 84%
04:00 +14°C° 0 mm 1 mps 741 mmHg 85%
05:00 +14°C° 0 mm 1 mps 741 mmHg 86%
06:00 +14°C° 0.1 mm 1 mps 741 mmHg 87%
07:00 +14°C° 0.1 mm 1 mps 742 mmHg 87%
08:00 +14°C° 0.1 mm 1 mps 742 mmHg 88%
09:00 +15°C° 0.3 mm 2 mps 742 mmHg 88%
10:00 +15°C° 0.3 mm 2 mps 742 mmHg 87%
11:00 +15°C° 0.3 mm 2 mps 743 mmHg 86%
12:00 +16°C° 0.1 mm 2 mps 742 mmHg 81%
13:00 +18°C° 0.1 mm 2 mps 742 mmHg 75%
14:00 +19°C° 0.1 mm 2 mps 742 mmHg 69%
15:00 +19°C° 0.2 mm 3 mps 742 mmHg 70%
16:00 +19°C° 0.2 mm 3 mps 742 mmHg 70%
17:00 +19°C° 0.2 mm 4 mps 742 mmHg 70%
18:00 +18°C° 0.1 mm 3 mps 742 mmHg 76%
19:00 +17°C° 0.1 mm 3 mps 742 mmHg 82%
20:00 +16°C° 0.1 mm 2 mps 743 mmHg 88%
21:00 +15°C° 0 mm 2 mps 743 mmHg 89%
22:00 +14°C° 0 mm 2 mps 743 mmHg 90%
23:00 +13°C° 0 mm 2 mps 743 mmHg 92%

10 July, Friday

Time Temperature Precipitation Wind Pressure Humidity
00:00 +13°C° 0 mm 2 mps 744 mmHg 92%
01:00 +12°C° 0 mm 2 mps 744 mmHg 92%
02:00 +12°C° 0 mm 2 mps 744 mmHg 92%
03:00 +12°C° 0 mm 2 mps 744 mmHg 91%
04:00 +12°C° 0 mm 2 mps 744 mmHg 91%
05:00 +12°C° 0 mm 2 mps 745 mmHg 90%
06:00 +13°C° 0 mm 2 mps 745 mmHg 85%
07:00 +15°C° 0 mm 2 mps 745 mmHg 80%
08:00 +17°C° 0 mm 2 mps 745 mmHg 75%
09:00 +18°C° 0 mm 2 mps 745 mmHg 69%
10:00 +19°C° 0 mm 2 mps 746 mmHg 64%
11:00 +20°C° 0 mm 2 mps 746 mmHg 59%
12:00 +21°C° 0 mm 2 mps 746 mmHg 57%
13:00 +21°C° 0 mm 2 mps 745 mmHg 56%
14:00 +23°C° 0 mm 2 mps 745 mmHg 54%
15:00 +23°C° 0 mm 2 mps 745 mmHg 56%
16:00 +23°C° 0 mm 2 mps 745 mmHg 58%
17:00 +23°C° 0 mm 2 mps 745 mmHg 59%
18:00 +21°C° 0 mm 1 mps 745 mmHg 64%
19:00 +20°C° 0 mm 1 mps 745 mmHg 70%
20:00 +18°C° 0 mm 1 mps 745 mmHg 75%
21:00 +18°C° 0 mm 1 mps 745 mmHg 78%
22:00 +16°C° 0 mm 1 mps 746 mmHg 81%
23:00 +15°C° 0 mm 1 mps 746 mmHg 83%
Show more